| time (UTC) | temp C | wind direction | speed KPH | gust KPH | rain 1hr cm | rain 24hr cm | rain mn cm | humidity % | barometer mb |
| 20260506172103 | 21 | 120 | 25.7 | 0.0 | 0.00 | 0.00 | 0.00 | 43 | |
| 20260506162321 | 22 | 130 | 29.0 | 0.0 | 0.00 | 0.00 | 0.00 | 40 | |
| 20260506152137 | 22 | 130 | 29.0 | 46.7 | 0.00 | 0.00 | 0.00 | 37 | |
| 20260506142104 | 22 | 130 | 29.0 | 0.0 | 0.00 | 0.00 | 0.00 | 38 | |
| 20260506132105 | 22 | 130 | 29.0 | 49.9 | 0.00 | 0.00 | 0.00 | 43 | |
| 20260506122104 | 21 | 170 | 22.5 | 0.0 | 0.00 | 0.00 | 0.00 | 43 | |
| 20260506112049 | 22 | 140 | 19.3 | 0.0 | 0.00 | 0.00 | 0.00 | 40 | |
| 20260506102251 | 22 | 190 | 19.3 | 0.0 | 0.00 | 0.00 | 0.00 | 37 | |
| 20260506092035 | 18 | 210 | 11.3 | 0.0 | 0.00 | 0.00 | 0.00 | 48 | |
| 20260506082049 | 17 | 200 | 14.5 | 0.0 | 0.00 | 0.00 | 0.00 | 55 | |
| 20260506072051 | 17 | 230 | 11.3 | 0.0 | 0.00 | 0.00 | 0.00 | 63 | |
| 20260506062124 | 15 | 240 | 11.3 | 0.0 | 0.00 | 0.00 | 0.00 | 72 | |
| 20260506042305 | 11 | 220 | 11.3 | 0.0 | 0.00 | 0.00 | 0.00 | 87 | |
| 20260506032051 | 12 | 280 | 8.0 | 0.0 | 0.00 | 0.00 | 0.00 | 82 | |
| 20260506022049 | 12 | 270 | 11.3 | 0.0 | 0.00 | 0.00 | 0.00 | 82 | |
| 20260506012150 | 15 | 330 | 14.5 | 0.0 | 0.00 | 0.00 | 0.00 | 67 | |
| 20260506002048 | 13 | 320 | 11.3 | 0.0 | 0.00 | 0.00 | 0.00 | 67 | |
| 20260505232048 | 13 | 50 | 8.0 | 0.0 | 0.00 | 0.00 | 0.00 | 62 | |
| 20260505222048 | 15 | 90 | 14.5 | 0.0 | 0.00 | 0.00 | 0.00 | 58 | |
| 20260505212139 | 15 | 100 | 14.5 | 0.0 | 0.00 | 0.00 | 0.00 | 58 | |
| 20260505202105 | 16 | 90 | 11.3 | 0.0 | 0.00 | 0.00 | 0.00 | 55 | |
| 20260505192122 | 17 | 100 | 14.5 | 0.0 | 0.00 | 0.00 | 0.00 | 51 | |
| 20260505182105 | 20 | 120 | 25.7 | 0.0 | 0.00 | 0.00 | 0.00 | 40 |